Zurück zum Katalog

YAM-5

AktivKommunikationSSO
NORAD 55076·PAYLOAD·🇺🇸 United States

Gestartet Jan 3, 2023 von Cape Canaveral Space Force Station

Loading…

Nächste Überflüge (nächste 24 Stunden)

TLE

AktuellSource: Space-Track

Epoche: Sep 14, 2026, 14:27 UTC

1 55076U 23001BV  26257.60274544  .00008993  00000-0  22580-3 0  9992
2 55076  97.3102 320.5611 0009476 138.6500 221.5466 15.40181953205868

Verfolge YAM-5 in Echtzeit mit AllMySat

Download on the App Store